Date String (YYYY-MM-DD hh:mm:ss) UTC,Instrument flags,absolute air pressure of the measurement (hPa),sample flow rate (lpm),inlet stack bypass flow (lpm),air temperature of the measurement (°C),ambient temperature measured by the external sensor (°C),aerosol sample conditioner tube jacket temperature (°C),OPC LED temperature (°C),internal box temperature (°C),relative humidity of the measurement (%),span deviation,mass concentration of particles derived from Lorenz-Mie calculation of OPC scattering (μg/m³),mass concentration of particles derived from Lorenz-Mie calculation of OPC scattering (μg/m³),mass concentration of particles derived from Lorenz-Mie calculation of OPC scattering (μg/m³)
DateTimeUTC,F1_M11,P_M11,Q1_M11,Q2_M11,T1_M11,T2_M11,T3_M11,T4_M11,T5_M11,U1_M11,ZSPAN_M11,X2_M11,X0_M11,X1_M11
2023-10-21 15:00:00,SystemResetWarning,0830.0,5.01,000.00,029.4,028.2,000.0,037.7,031.0,10.6,0000.0,0001.83,0004.97,0001.00
2023-10-21 15:01:00,SystemResetWarning,0830.0,5.01,000.00,029.4,028.2,000.0,037.7,031.0,10.4,0000.0,0001.85,0005.07,0001.00
2023-10-21 15:02:00,SystemResetWarning,0830.0,5.00,000.00,029.4,028.2,000.0,037.7,031.0,10.4,0000.0,0001.82,0005.73,0001.01
2023-10-21 15:03:00,SystemResetWarning,0830.0,4.99,000.00,029.4,028.2,000.0,037.8,031.1,10.5,0000.0,0001.75,0005.67,0000.99
2023-10-21 15:04:00,SystemResetWarning,0830.0,4.99,000.00,029.5,028.2,000.0,037.8,031.1,10.3,0000.0,0001.66,0006.35,0000.98
2023-10-21 15:05:00,SystemResetWarning,0830.1,5.01,000.00,029.5,028.3,000.0,037.8,031.1,10.4,0000.0,0001.58,0006.83,0000.97
2023-10-21 15:06:00,SystemResetWarning,0830.0,5.00,000.00,029.5,028.3,000.0,037.8,031.1,10.4,0000.0,0001.55,0006.96,0000.96
2023-10-21 15:07:00,SystemResetWarning,0830.0,4.98,000.00,029.5,028.3,000.0,037.8,031.1,10.6,0000.0,0001.56,0007.54,0000.96
2023-10-21 15:08:00,SystemResetWarning,0830.0,5.01,000.00,029.5,028.3,000.0,037.8,031.1,10.5,0000.0,0001.56,0008.04,0000.96
2023-10-21 15:09:00,SystemResetWarning,0830.0,5.01,000.00,029.5,028.2,000.0,037.8,031.2,10.4,0000.0,0001.57,0007.80,0000.97
2023-10-21 15:10:00,SystemResetWarning,0830.0,4.99,000.00,029.5,026.7,000.0,037.8,031.1,10.4,0000.0,0001.57,0007.89,0000.97
2023-10-21 15:11:00,SystemResetWarning,0830.0,5.00,000.00,029.4,025.4,000.0,037.7,030.9,10.3,0000.0,0001.60,0008.04,0000.97
2023-10-21 15:12:00,SystemResetWarning,0830.0,5.02,000.00,029.4,025.4,000.0,037.7,030.8,10.3,0000.0,0001.62,0008.46,0000.96
2023-10-21 15:13:00,SystemResetWarning,0830.0,5.00,000.00,029.2,025.6,000.0,037.7,030.6,10.4,0000.0,0001.66,0008.69,0000.96
2023-10-21 15:14:00,SystemResetWarning,0830.0,5.00,000.00,029.2,026.0,000.0,037.7,030.5,10.6,0000.0,0001.67,0008.89,0000.96
2023-10-21 15:15:00,SystemResetWarning,0830.0,5.00,000.00,029.1,026.3,000.0,037.7,030.5,10.6,0000.0,0001.71,0008.59,0000.96
2023-10-21 15:16:00,SystemResetWarning,0830.0,5.00,000.00,029.1,026.6,000.0,037.7,030.5,10.8,0000.0,0001.75,0008.18,0000.97
2023-10-21 15:17:00,SystemResetWarning,0830.0,5.00,000.00,029.1,026.8,000.0,037.7,030.6,10.7,0000.0,0001.89,0008.31,0000.99
2023-10-21 15:18:00,SystemResetWarning,0830.0,5.00,000.00,029.1,027.1,000.0,037.7,030.6,10.8,0000.0,0001.92,0007.88,0000.99
2023-10-21 15:19:00,SystemResetWarning,0830.0,5.00,000.00,029.1,027.3,000.0,037.6,030.6,10.9,0000.0,0001.93,0007.41,0001.00
2023-10-21 15:20:00,SystemResetWarning,0830.0,5.00,000.00,029.1,027.4,000.0,037.6,030.7,10.9,0000.0,0001.92,0007.37,0001.00
2023-10-21 15:21:00,SystemResetWarning,0830.0,5.00,000.00,029.1,027.5,000.0,037.6,030.7,11.1,0000.0,0001.91,0007.43,0001.01
2023-10-21 15:22:00,SystemResetWarning,0830.0,5.00,000.00,029.1,027.7,000.0,037.6,030.7,11.1,0000.0,0001.90,0007.70,0001.00
2023-10-21 15:23:00,SystemResetWarning,0830.0,5.00,000.00,029.2,027.7,000.0,037.6,030.8,11.3,0000.0,0001.94,0007.96,0001.01
2023-10-21 15:24:00,SystemResetWarning,0830.0,5.00,000.00,029.2,027.8,000.0,037.6,030.8,11.0,0000.0,0001.94,0007.68,0001.02
2023-10-21 15:25:00,SystemResetWarning,0830.0,5.00,000.00,029.2,027.9,000.0,037.6,030.8,11.0,0000.0,0001.95,0007.22,0001.02
2023-10-21 15:26:00,SystemResetWarning,0830.0,4.98,000.00,029.2,028.0,000.0,037.6,030.8,11.2,0000.0,0001.95,0007.35,0001.04
2023-10-21 15:27:00,SystemResetWarning,0830.0,5.00,000.00,029.3,028.0,000.0,037.7,030.9,11.7,0000.0,0001.93,0007.21,0001.04
2023-10-21 15:28:00,SystemResetWarning,0830.0,5.02,000.00,029.3,028.1,000.0,037.7,030.9,11.7,0000.0,0001.85,0007.56,0001.04
2023-10-21 15:29:00,SystemResetWarning,0830.1,5.01,000.00,029.3,028.1,000.0,037.7,030.9,11.0,0000.0,0001.86,0008.34,0001.06
2023-10-21 15:30:00,SystemResetWarning,0830.0,4.99,000.00,029.3,028.1,000.0,037.7,031.0,11.3,0000.0,0001.87,0008.36,0001.06
2023-10-21 15:31:00,SystemResetWarning,0830.0,4.99,000.00,029.4,027.8,000.0,037.7,031.0,11.8,0000.0,0001.88,0008.25,0001.06
2023-10-21 15:32:00,SystemResetWarning,0830.0,5.00,000.00,029.3,026.0,000.0,037.6,030.9,11.7,0000.0,0001.89,0008.32,0001.06
2023-10-21 15:33:00,SystemResetWarning,0830.0,5.00,000.00,029.2,025.0,000.0,037.6,030.7,11.6,0000.0,0001.92,0008.35,0001.08
2023-10-21 15:34:00,SystemResetWarning,0830.0,5.01,000.00,029.1,025.1,000.0,037.5,030.6,11.9,0000.0,0001.90,0007.97,0001.09
2023-10-21 15:35:00,SystemResetWarning,0830.0,5.01,000.00,029.0,025.4,000.0,037.5,030.4,11.7,0000.0,0001.87,0007.44,0001.09
2023-10-21 15:36:00,SystemResetWarning,0830.0,4.99,000.00,029.0,025.8,000.0,037.5,030.4,11.7,0000.0,0001.93,0007.42,0001.09
2023-10-21 15:37:00,SystemResetWarning,0830.0,5.00,000.00,028.9,026.2,000.0,037.5,030.4,11.8,0000.0,0001.94,0007.74,0001.10
2023-10-21 15:38:00,SystemResetWarning,0830.0,5.00,000.00,028.9,026.5,000.0,037.5,030.4,11.5,0000.0,0001.91,0007.79,0001.10
2023-10-21 15:39:00,SystemResetWarning,0829.9,5.00,000.00,028.9,026.7,000.0,037.5,030.5,11.4,0000.0,0001.97,0007.61,0001.10
2023-10-21 15:40:00,SystemResetWarning,0829.9,4.99,000.00,028.9,027.0,000.0,037.5,030.5,11.4,0000.0,0001.89,0005.96,0001.08
2023-10-21 15:41:00,SystemResetWarning,0829.9,4.99,000.00,028.9,027.2,000.0,037.5,030.6,11.3,0000.0,0001.90,0006.26,0001.07
2023-10-21 15:42:00,SystemResetWarning,0830.0,5.00,000.00,029.0,027.3,000.0,037.5,030.6,11.0,0000.0,0001.92,0006.91,0001.07
2023-10-21 15:43:00,SystemResetWarning,0829.9,5.01,000.00,029.0,027.5,000.0,037.5,030.6,11.0,0000.0,0001.93,0007.52,0001.07
2023-10-21 15:44:00,SystemResetWarning,0829.9,5.01,000.00,029.0,027.6,000.0,037.5,030.6,11.0,0000.0,0001.89,0007.57,0001.06
2023-10-21 15:45:00,SystemResetWarning,0829.9,4.99,000.00,029.0,027.7,000.0,037.5,030.7,11.0,0000.0,0001.92,0007.91,0001.06
2023-10-21 15:46:00,SystemResetWarning,0829.9,4.99,000.00,029.1,027.8,000.0,037.5,030.7,10.8,0000.0,0001.91,0007.98,0001.07
2023-10-21 15:47:00,SystemResetWarning,0829.9,5.00,000.00,029.1,027.9,000.0,037.5,030.8,10.8,0000.0,0001.84,0007.93,0001.07
2023-10-21 15:48:00,SystemResetWarning,0829.9,5.00,000.00,029.1,027.9,000.0,037.5,030.8,10.4,0000.0,0001.84,0007.93,0001.07
2023-10-21 15:49:00,SystemResetWarning,0829.9,5.01,000.00,029.2,028.0,000.0,037.5,030.8,10.6,0000.0,0001.87,0007.89,0001.07
2023-10-21 15:50:00,SystemResetWarning,0829.8,5.00,000.00,029.2,028.1,000.0,037.6,030.9,10.7,0000.0,0001.85,0007.96,0001.06
2023-10-21 15:51:00,SystemResetWarning,0829.8,5.00,000.00,029.2,027.9,000.0,037.6,030.9,10.9,0000.0,0001.96,0008.16,0001.06
2023-10-21 15:52:00,SystemResetWarning,0829.8,4.98,000.00,029.2,026.5,000.0,037.5,030.8,11.0,0000.0,0001.97,0008.21,0001.07
2023-10-21 15:53:00,SystemResetWarning,0829.8,5.02,000.00,029.1,025.0,000.0,037.5,030.6,11.3,0000.0,0001.99,0008.04,0001.09
2023-10-21 15:54:00,SystemResetWarning,0829.8,5.01,000.00,029.1,025.0,000.0,037.4,030.5,11.4,0000.0,0002.03,0007.64,0001.09
2023-10-21 15:55:00,SystemResetWarning,0829.8,4.99,000.00,029.0,025.3,000.0,037.4,030.3,11.4,0000.0,0002.02,0006.34,0001.10
2023-10-21 15:56:00,SystemResetWarning,0829.8,5.01,000.00,028.9,025.7,000.0,037.4,030.3,11.7,0000.0,0002.00,0005.98,0001.09
2023-10-21 15:57:00,SystemResetWarning,0829.8,5.00,000.00,028.9,026.1,000.0,037.4,030.3,11.7,0000.0,0001.99,0005.87,0001.09
2023-10-21 15:58:00,SystemResetWarning,0829.8,5.00,000.00,028.9,026.4,000.0,037.4,030.4,11.6,0000.0,0002.00,0006.11,0001.09
2023-10-21 15:59:00,SystemResetWarning,0829.8,5.00,000.00,028.9,026.7,000.0,037.4,030.5,11.6,0000.0,0001.98,0005.41,0001.10
